Regional Weather Roundup
Issued by NWS Jackson, KY

Home | Current Version | Previous Version | Text Only | Print | Product List | Glossary On
Versions: 1 2 3 4 5 6 7 8 9 10 11 12 13 14 15 16 17 18 19 20 21 22 23 24 25 26
000
ASUS43 KJKL 011810
RWRJKL

EAST KENTUCKY HOURLY WEATHER ROUNDUP
NATIONAL WEATHER SERVICE JACKSON KY
100 PM EST WED MAR 01 2017

NOTE: "FAIR" INDICATES FEW OR NO CLOUDS BELOW 12,000 FEET WITH
NO SIGNIFICANT WEATHER AND/OR OBSTRUCTIONS TO VISIBILITY.

* THESE REPORTS ARE NOT UNDER NWS QUALITY CONTROL AND MAY NOT
  REPORT WEATHER SUCH AS PRECIPITATION AND FOG.

KYZ079-080-083-085-087-088-110-112-115-119-120-011900
...EASTERN KENTUCKY...

CITY           SKY/WX    TMP DP  RH WIND       PRES   REMARKS
JACKSON        CLOUDY    56  52  86 S10G20    29.75F
6HR MIN TEMP:  51; 6HR MAX TEMP:  68; 6HR PCP:  0.69;

LONDON         PTSUNNY   58  54  86 SW9G18    29.77F
6HR MIN TEMP:  52; 6HR MAX TEMP:  66; 6HR PCP:  0.75;

SOMERSET*      MOSUNNY   61  54  77 SW14G20   29.78F
MONTICELLO*    LGT RAIN  61  57  87 SW23G30   29.81F
6HR MIN TEMP:  54; 6HR MAX TEMP:  69; 6HR PCP:  0.51;

WILLIAMSBURG*  CLOUDY    57  57 100 SW14      29.79F
MIDDLESBORO*   LGT RAIN  61  56  83 SW15G22   29.82F
6HR MIN TEMP:  54; 6HR MAX TEMP:  65; 6HR PCP:  0.87;

HARLAN APT*    CLOUDY    54  52  94 CALM      29.84F
BIG SANDY APT* CLOUDY    55  54  94 S13G22    29.75F
6HR MIN TEMP:  52; 6HR MAX TEMP:  70;

MOREHEAD APT*  CLOUDY    63  52  67 SW24G32   29.69F
ASHLAND*       CLOUDY    61  54  77 SW9G17    29.66F
$$

KYZ035-036-041-042-044-050-067-078-099-011900
...CENTRAL KENTUCKY...

CITY           SKY/WX    TMP DP  RH WIND       PRES   REMARKS
MT STERLING*   MOSUNNY   63  54  72 W20G25    29.70F
FLEMING/MASON* PTSUNNY   63  55  77 SW28G35   29.64F
DANVILLE*      PTSUNNY   63  55  77 SW13G20   29.73S
LEXINGTON      MOSUNNY   67  54  63 SW20G30   29.67F
6HR MIN TEMP:  53; 6HR MAX TEMP:  69; 6HR PCP:  0.61;

FRANKFORT      PTSUNNY   65  52  62 W20G33    29.67S
6HR MIN TEMP:  54; 6HR MAX TEMP:  68; 6HR PCP:  0.68;

LOUISVILLE     PTSUNNY   64  51  62 W23G29    29.70R
6HR MIN TEMP:  55; 6HR MAX TEMP:  66; 6HR PCP:  0.45;

LEBANON*         N/A     66  54  63 SW20G25   29.71F
GLASGOW*       CLOUDY    67  55  67 SW22G29   29.77S
BOWLING GREEN  PTSUNNY   70  54  56 W15G24    29.76F
6HR MIN TEMP:  59; 6HR MAX TEMP:  71; 6HR PCP:  0.56;

$$

KYZ091>093-OHZ055-061-077-WVZ005-015-034-035-042-011900
...SOUTHERN OHIO/WEST VIRGINIA...

CITY           SKY/WX    TMP DP  RH WIND       PRES   REMARKS
COVINGTON      CLOUDY    60  51  72 W22G30    29.63S
COLUMBUS       PTSUNNY   61  51  70 SW22G38   29.56S
DAYTON         CLOUDY    56  49  77 W23G33    29.57S
WILMINGTON     CLOUDY    59  52  77 SW24      29.58S
HUNTINGTON     CLOUDY    58  51  78 SW14G24   29.67F
CHARLESTON     CLOUDY    57  50  77 S8        29.70F
PINEVILLE*     HVY RAIN  52  48  87 MISG      29.93F
BECKLEY        HVY RAIN  51  48  89 SW15G21   29.87F FOG
BLUEFIELD      LGT RAIN  48  46  93 SW8       29.93F
$$

VAZ002-007-008-TNZ017-027-036-066-071-011900
...SOUTHWEST VIRGINIA/EAST TENNESSEE...

CITY           SKY/WX    TMP DP  RH WIND       PRES   REMARKS
WISE*          TSTM      52  52 100 SW6       29.87F
JONESVILLE*    RAIN      54  54 100 CALM      29.89F
ABINGDON*      HVY RAIN  54  51  90 W3        29.94R
BRISTOL        TSTM      57  51  80 N7        29.88S
MORRISTOWN*    CLOUDY    61  59  94 NW6G14    29.85F
SEVIERVILLE*   MOCLDY    73  55  53 SW18G37   29.82F
KNOXVILLE      TSTM      70  59  68 SW21G28   29.83F
LAFOLLETTE*    MOCLDY    61  57  88 SW13G22   29.85F HAZE
OAK RIDGE      LGT RAIN  61  57  87 VRB7      29.86F
CROSSVILLE     TSTM      56  55  97 SW12G20   29.90R VSB 1/2
NASHVILLE      PTSUNNY   65  59  81 SW9G17    29.81F
$$

...KEY TO REMARKS...
VSB - VISIBILITY IN MILES
WCI - WIND CHILL INDEX
HX  - HEAT INDEX

$$




USA.gov is the U.S. government's official web portal to all federal, state and local government web resources and services.